Overview Statistics Trail Chart Weather Telemetry Raw packets
 

This is the latest recevied weather packets stored in our database for station/object JA0BES-13. If no packets are shown the sender has not sent any weather packets the latest 10 day(s).

<< 10 11 12 13 14 15 16 >>
Time Temp. Humidity Pressure Rain* Wind** Luminosity Snow
1788409702 22.22° C 100% 1012.6 hPa 6.86 mm - - -
1788409102 22.22° C 100% 1012.8 hPa 6.86 mm - - -
1788408501 22.22° C 100% 1013 hPa 6.6 mm - - -
1788407901 22.22° C 100% 1013.3 hPa 6.35 mm - - -
1788407301 22.22° C 100% 1013.4 hPa 5.84 mm - - -
1788406700 22.22° C 100% 1013 hPa 5.08 mm - - -
1788406100 21.67° C 100% 1013.2 hPa 4.83 mm - - -
1788405500 21.67° C 100% 1013.1 hPa 4.57 mm - - -
1788404899 21.67° C 100% 1012.9 hPa 4.57 mm - - -
1788404299 21.67° C 100% 1013.1 hPa 4.57 mm - - -
1788403698 21.67° C 100% 1013.1 hPa 4.32 mm - - -
1788403098 21.67° C 100% 1013.1 hPa 4.06 mm - - -
1788402498 21.11° C 100% 1013 hPa 3.56 mm - - -
1788401898 21.11° C 100% 1013.4 hPa 3.3 mm - - -
1788401297 21.67° C 100% 1013.4 hPa 3.05 mm - - -
1788400697 21.67° C 100% 1013.5 hPa 1.78 mm - - -
1788400096 22.22° C 100% 1013.1 hPa 1.27 mm - - -
1788399496 23.33° C 100% 1012.9 hPa 1.02 mm - - -
1788398896 23.89° C 100% 1012.8 hPa 0.76 mm - - -
1788398296 23.89° C 100% 1012.9 hPa 0 mm - - -
1788397695 23.89° C 100% 1012.8 hPa 0 mm - - -
1788397095 24.44° C 100% 1012.1 hPa 0 mm - - -
1788396494 24.44° C 100% 1012 hPa 0 mm - - -
1788395894 24.44° C 100% 1011.8 hPa 0 mm - - -
1788395293 25.56° C 100% 1011.5 hPa 0 mm - - -

* Rain since midnight (hover to see other rain measurements)
** Current wind speed in m/s (hover to see current wind gust speed)